TimeMDT,TemperatureF,Dew PointF,Humidity,Sea Level PressureIn,VisibilityMPH,Wind Direction,Wind SpeedMPH,Gust SpeedMPH,PrecipitationIn,Events,Conditions,WindDirDegrees,DateUTC
12:51 AM,42.1,10.0,27,30.17,10.0,SSW,4.6,-,N/A,,Clear,210,2013-04-19 06:51:00
1:51 AM,39.9,9.0,28,30.17,10.0,WSW,6.9,-,N/A,,Clear,240,2013-04-19 07:51:00
2:51 AM,39.9,8.1,27,30.16,10.0,WSW,8.1,-,N/A,,Clear,250,2013-04-19 08:51:00
3:51 AM,39.9,9.0,28,30.15,10.0,West,4.6,-,N/A,,Clear,260,2013-04-19 09:51:00
4:51 AM,35.1,7.0,31,30.18,10.0,WSW,3.5,-,N/A,,Clear,250,2013-04-19 10:51:00
5:51 AM,35.1,5.0,28,30.19,10.0,Calm,Calm,-,N/A,,Clear,0,2013-04-19 11:51:00
6:51 AM,33.1,10.0,38,30.22,10.0,NNW,3.5,-,N/A,,Clear,330,2013-04-19 12:51:00
7:51 AM,37.9,9.0,30,30.24,10.0,Calm,Calm,-,N/A,,Clear,0,2013-04-19 13:51:00
8:51 AM,44.1,12.0,27,30.23,10.0,South,9.2,-,N/A,,Clear,190,2013-04-19 14:51:00
9:51 AM,48.9,10.9,22,30.22,10.0,South,6.9,-,N/A,,Clear,180,2013-04-19 15:51:00
10:51 AM,52.0,10.0,19,30.20,10.0,SSW,6.9,-,N/A,,Clear,200,2013-04-19 16:51:00
11:51 AM,55.0,9.0,16,30.18,10.0,Calm,Calm,-,N/A,,Clear,0,2013-04-19 17:51:00
12:51 PM,57.0,6.1,13,30.14,10.0,Variable,3.5,18.4,N/A,,Clear,0,2013-04-19 18:51:00
1:51 PM,62.1,3.9,10,30.09,10.0,SSW,4.6,-,N/A,,Clear,200,2013-04-19 19:51:00
2:51 PM,64.0,1.9,8,30.04,10.0,SSE,11.5,19.6,N/A,,Clear,150,2013-04-19 20:51:00
3:51 PM,66.9,-0.0,7,29.99,10.0,South,12.7,20.7,N/A,,Clear,170,2013-04-19 21:51:00
4:51 PM,66.9,1.0,7,29.96,10.0,SSE,15.0,24.2,N/A,,Clear,160,2013-04-19 22:51:00
5:51 PM,69.1,-2.9,6,29.93,10.0,SSE,20.7,-,N/A,,Clear,160,2013-04-19 23:51:00
6:51 PM,66.9,-4.0,6,29.93,10.0,SSE,17.3,24.2,N/A,,Clear,160,2013-04-20 00:51:00
7:51 PM,62.1,-0.0,8,29.91,10.0,SSE,15.0,-,N/A,,Clear,150,2013-04-20 01:51:00
8:51 PM,57.0,10.0,15,29.91,10.0,SSE,19.6,-,N/A,,Clear,150,2013-04-20 02:51:00
9:51 PM,57.0,9.0,15,29.92,10.0,South,16.1,-,N/A,,Clear,170,2013-04-20 03:51:00
10:51 PM,53.1,8.1,16,29.91,10.0,South,13.8,-,N/A,,Clear,170,2013-04-20 04:51:00
11:51 PM,53.1,8.1,16,29.91,10.0,South,13.8,-,N/A,,Clear,180,2013-04-20 05:51:00